Accueil
METAR-TAF:

METAR-TAF

Aéroports :

Chatham Municipal Airport

Chatham, Massachusetts, États-Unis

latitude: 41-41-15N, longitude: 069-59-36W, altitude: 20 m

Observation

Le bulletin a été fait il y a 29 minutes, à 12:52 UTC
Vent 8 kt de est avec des rafales jusqu'à 16 kt
Température 17°C
Humidité 72%
Pression 1034 hPa
Visibilité: 16.1 km
Ciel clair

METAR: KCQX 251252Z AUTO 10008G16KT 10SM CLR 17/12 A3053 RMK AO2 SLP338 T01670122

Heure: 09:21 (13:21 UTC)


TAF: absent

Observations et prévisions météorologiques de plus de 4000 aéroports (messages METAR et TAF).

Les stations disponibles sont représentées par des disques jaunes et rouges sur la carte.

Passer la souris dessus pour voir le nom de la station.

Cliquer dessus pour voir les observations et prévisions météorologiques.

Pour changer de carte: cliquez sur les boutons verts avec une croix noire pour zoomer, sur le bouton vert avec un tiret pour effectuer un zoom arrière, ou sur les flèches vertes pour les cartes adjacentes.


METAR-TAF: